TimeEST,TemperatureF,Dew PointF,Humidity,Sea Level PressureIn,VisibilityMPH,Wind Direction,Wind SpeedMPH,Gust SpeedMPH,PrecipitationIn,Events,Conditions,WindDirDegrees,DateUTC
12:52 AM,19.9,16.0,85,30.16,9.0,SSW,6.9,-,0.00,,Mostly Cloudy,210,2013-12-12 05:52:00
1:52 AM,18.0,14.0,84,30.17,10.0,NNW,3.5,-,N/A,,Mostly Cloudy,340,2013-12-12 06:52:00
2:06 AM,18.0,15.1,88,30.15,2.5,NW,3.5,-,0.00,Snow,Light Snow,320,2013-12-12 07:06:00
2:15 AM,19.0,17.1,92,30.15,1.2,NW,4.6,-,0.00,Snow,Light Snow,310,2013-12-12 07:15:00
2:27 AM,19.9,16.0,85,30.16,1.5,NW,8.1,-,0.00,Snow,Light Snow,310,2013-12-12 07:27:00
2:41 AM,19.9,16.0,85,30.16,3.0,West,4.6,-,0.00,Snow,Light Snow,280,2013-12-12 07:41:00
2:52 AM,19.0,16.0,88,30.19,9.0,West,3.5,-,0.00,,Overcast,270,2013-12-12 07:52:00
3:52 AM,17.1,12.9,84,30.20,10.0,WNW,4.6,-,N/A,,Partly Cloudy,300,2013-12-12 08:52:00
4:52 AM,10.9,8.1,88,30.22,10.0,South,3.5,-,N/A,,Clear,190,2013-12-12 09:52:00
5:52 AM,7.0,5.0,92,30.24,10.0,Calm,Calm,-,N/A,,Clear,0,2013-12-12 10:52:00
6:52 AM,10.9,6.1,81,30.26,10.0,NW,5.8,-,N/A,,Clear,310,2013-12-12 11:52:00
7:52 AM,14.0,7.0,74,30.28,10.0,Calm,Calm,-,N/A,,Clear,0,2013-12-12 12:52:00
8:52 AM,17.1,5.0,59,30.29,10.0,NW,8.1,-,N/A,,Clear,310,2013-12-12 13:52:00
9:52 AM,18.0,3.0,52,30.29,10.0,WNW,9.2,-,N/A,,Clear,300,2013-12-12 14:52:00
10:52 AM,19.0,1.0,46,30.27,10.0,WNW,10.4,-,N/A,,Scattered Clouds,290,2013-12-12 15:52:00
11:52 AM,19.9,-0.0,42,30.23,10.0,WNW,13.8,-,N/A,,Clear,300,2013-12-12 16:52:00
12:52 PM,19.9,-0.0,42,30.21,10.0,NNW,16.1,23.0,N/A,,Clear,330,2013-12-12 17:52:00
1:52 PM,21.0,-0.0,40,30.20,10.0,West,10.4,-,N/A,,Clear,280,2013-12-12 18:52:00
2:52 PM,19.9,-0.0,42,30.20,10.0,West,5.8,-,N/A,,Clear,280,2013-12-12 19:52:00
3:52 PM,18.0,1.0,48,30.20,10.0,WNW,3.5,-,N/A,,Clear,300,2013-12-12 20:52:00
4:52 PM,10.9,5.0,77,30.21,10.0,SW,4.6,-,N/A,,Clear,230,2013-12-12 21:52:00
5:52 PM,10.0,6.1,84,30.21,10.0,South,4.6,-,N/A,,Scattered Clouds,190,2013-12-12 22:52:00
6:52 PM,7.0,3.9,87,30.21,10.0,SSW,4.6,-,N/A,,Clear,200,2013-12-12 23:52:00
7:52 PM,5.0,1.9,87,30.19,10.0,Calm,Calm,-,N/A,,Clear,0,2013-12-13 00:52:00
8:52 PM,3.9,-0.0,84,30.15,10.0,Calm,Calm,-,N/A,,Clear,0,2013-12-13 01:52:00
9:52 PM,5.0,1.9,87,30.12,10.0,Calm,Calm,-,N/A,,Mostly Cloudy,0,2013-12-13 02:52:00
10:52 PM,3.9,-0.0,84,30.09,10.0,Calm,Calm,-,N/A,,Clear,0,2013-12-13 03:52:00
11:52 PM,12.9,6.1,74,30.06,10.0,SSW,5.8,-,N/A,,Clear,210,2013-12-13 04:52:00